Weather History for Lincoln, NE

Change the Weather History Date:

Monday, November 18, 2013

  Actual Average Record
Temperature  
Mean Temperature 41 °F 38 °F  
Max Temperature 57 °F 49 °F 78 °F (1908)
Min Temperature 24 °F 26 °F 4 °F (1891)
Degree Days  
Heating Degree Days 24 27  
Month to date heating degree days 423 411  
Since 1 July heating degree days 879 890  
Cooling Degree Days 0 0  
Month to date cooling degree days 0 0  
Year to date cooling degree days 1236 1173  
Moisture  
Dew Point 23 °F    
Average Humidity 53    
Maximum Humidity 82    
Minimum Humidity 24    
Precipitation  
Precipitation 0.00 in 0.05 in 0.68 in (1948)
Month to date precipitation 1.20 0.93  
Year to date precipitation 26.47 27.50  
Snow  
Snow 0.00 in 0.10 in - ()
Month to date snowfall T 0.9  
Since 1 July snowfall T 1.6  
Snow Depth 0.00 in    
Sea Level Pressure  
Sea Level Pressure 30.21 in    
Wind  
Wind Speed 6 mph (SW)    
Max Wind Speed 17 mph    
Max Gust Speed 22 mph    
Visibility 10 miles    
Events      
T = Trace of Precipitation, MM = Missing Value Source: NWS Daily Summary

Daily Weather History Graph

Daily Weather History Graph

Search for Another Location

Airport:

Trip Planner

Search our weather history database for the weather conditions in past years. The results will help you decide how hot, cold, wet, or windy it might be!

Date:

Astronomy

Nov. 18, 2013 Rise Set
Actual Time 7:18 AM CST 5:06 PM CST
Civil Twilight 6:48 AM CST 5:35 PM CST
Nautical Twilight 6:14 AM CST 6:09 PM CST
Astronomical Twilight 5:42 AM CST 6:41 PM CST
Moon 6:09 PM CST (11/18) 8:07 AM CST (11/18)
Length of Visible Light 10h 47m
Length of Day
9h 48m
Full, 99% of the Moon is Illuminated
Nov 18
Full
Nov 25
Last Quarter
Dec 2
New
Dec 9
First Quarter
Dec 17
Full

Hourly Weather History & Observations

Time (CST) Temp. Windchill Dew Point Humidity Pressure Visibility Wind Dir Wind Speed Gust Speed Precip Events Conditions
12:54 AM 34.0 °F 31.0 °F 28.0 °F 79% 30.12 in 10.0 mi West 3.5 mph - N/A   Clear
1:54 AM 33.1 °F 28.7 °F 27.0 °F 78% 30.13 in 10.0 mi WNW 4.6 mph - N/A   Clear
2:54 AM 32.0 °F 28.7 °F 25.0 °F 75% 30.14 in 10.0 mi WNW 3.5 mph - N/A   Clear
3:54 AM 30.9 °F 27.5 °F 24.1 °F 76% 30.15 in 10.0 mi WNW 3.5 mph - N/A   Clear
4:54 AM 28.9 °F - 23.0 °F 78% 30.17 in 10.0 mi Calm Calm - N/A   Clear
5:54 AM 28.0 °F - 21.9 °F 78% 30.19 in 10.0 mi Calm Calm - N/A   Clear
6:54 AM 27.0 °F - 21.0 °F 78% 30.23 in 10.0 mi Calm Calm - N/A   Clear
7:54 AM 26.1 °F 21.9 °F 21.0 °F 81% 30.26 in 10.0 mi SSW 3.5 mph - N/A   Clear
8:54 AM 32.0 °F - 26.1 °F 79% 30.28 in 10.0 mi Calm Calm - N/A   Clear
9:54 AM 42.1 °F - 30.0 °F 62% 30.28 in 10.0 mi Calm Calm - N/A   Clear
10:43 AM 50.0 °F - 23.0 °F 35% 30.26 in 10.0 mi WSW 13.8 mph - N/A   Clear
10:54 AM 51.1 °F - 19.9 °F 29% 30.27 in 10.0 mi WSW 15.0 mph - N/A   Clear
11:54 AM 54.0 °F - 21.0 °F 28% 30.25 in 10.0 mi WSW 15.0 mph - N/A   Clear
12:54 PM 55.0 °F - 21.0 °F 27% 30.24 in 10.0 mi WSW 13.8 mph - N/A   Clear
1:54 PM 55.9 °F - 19.9 °F 25% 30.22 in 10.0 mi WSW 12.7 mph - N/A   Clear
2:54 PM 55.9 °F - 21.0 °F 26% 30.20 in 10.0 mi WSW 11.5 mph - N/A   Clear
3:54 PM 55.9 °F - 21.0 °F 26% 30.20 in 10.0 mi SW 5.8 mph - N/A   Clear
4:54 PM 51.1 °F - 23.0 °F 33% 30.19 in 10.0 mi South 3.5 mph - N/A   Clear
5:54 PM 44.1 °F 42.5 °F 21.9 °F 42% 30.21 in 10.0 mi South 3.5 mph - N/A   Clear
6:54 PM 37.9 °F 31.5 °F 24.1 °F 57% 30.22 in 10.0 mi South 9.2 mph - N/A   Clear
7:54 PM 37.9 °F 32.7 °F 24.1 °F 57% 30.21 in 10.0 mi South 6.9 mph - N/A   Clear
8:54 PM 36.0 °F 31.1 °F 23.0 °F 59% 30.22 in 10.0 mi South 5.8 mph - N/A   Clear
9:54 PM 35.1 °F 30.1 °F 23.0 °F 61% 30.21 in 10.0 mi South 5.8 mph - N/A   Clear
10:54 PM 36.0 °F 31.1 °F 21.9 °F 57% 30.21 in 10.0 mi South 5.8 mph - N/A   Clear
11:54 PM 37.0 °F 32.4 °F 23.0 °F 57% 30.19 in 10.0 mi SSE 5.8 mph - N/A   Clear